Location: Asheville, NC
(35.6000°N, 82.5500°W)
Time: 03:08:42
(UTC-05:00)

Hubble Space Telescope - Pass Details

Date: 09 December 2017
Orbit: 537 x 541 km, 28.5° (Epoch: 21 January)

Event Time Altitude Azimuth Distance (km) Brightness Sun altitude
Rises 17:52:23 0° 224° (SW) 2,670 5.8 -7.3°
Reaches altitude 10° 17:55:15 10° 204° (SSW) 1,781 4.2 -7.8°
Maximum altitude 17:57:58 17° 163° (SSE) 1,388 2.9 -8.4°
Drops below altitude 10° 18:00:42 10° 121° (ESE) 1,785 3.1 -8.9°
Enters shadow 18:02:07 - 109° (ESE) 2,196 3.4 -9.1°
